x

Sentry Shoal (46131) Wave Buoy

8:00 - Fri 26th Dec 2014 All times are PST. -8 hours from GMT.

  • Sig Wave height 1.0ft
  • Peak Period 3s
  • Wind
    13mph, 16mph gusts
  • Sea Temp 47°f
  • Luft Temp 43°f
  • Sea Pressure 1026.5mb
  • Sentry Shoal
  • Sentry Shoal

More Historic Weather Station data

Upgrade to MSW Pro to gain access to the past 30 days of data for over 8000 Wavebouys and Weather Stations around the globe.

Join Pro

Comparision Forecast

View Surf forecast
   
Fr 12/26 8:00 1ft 3s 13 16 mph 1026.5mb 47f 43f
7:00 0.7ft 2s 7 9 mph 1027.2mb 47f 43f
6:00 0.7ft 3s 9 11 mph 1027.5mb 47f 43f
5:00 0.7ft 2s 9 11 mph 1027.6mb 47f 44f
4:00 0.7ft 3s 11
mph
1027.5mb 47f 43f
3:00 0.7ft 2s 9 11 mph 1027.7mb 47f 43f
2:00 1ft 2s 9 11 mph 1027.7mb 46f 42f
1:00 1ft 2s 9 11 mph 1027.9mb 47f 42f
12:00 1ft 2s 11 13 mph 1028mb 46f 42f
11:00 0.7ft 3s 11 13 mph 1028.1mb 46f 42f
10:00 0.7ft 3s 9
mph
1028.8mb 46f 41f
9:00 0.3ft 2s 9 11 mph 1028mb 46f 41f
8:00 0.3ft 2s 7
mph
1027.8mb 46f 40f
7:00 0.3ft 2s 7 9 mph 1027.5mb 46f 41f
6:00 0.3ft 2s 4 7 mph 1027.6mb 47f 41f
5:00 0.3ft 2s 4 7 mph 1027.5mb 47f 42f
4:00 0.3ft 2s 7
mph
1027.4mb 46f 42f
3:00 0.3ft 2s 4 7 mph 1027.2mb 46f 42f
2:00 0.7ft 2s 4 7 mph 1027.1mb 47f 42f
1:00 0.7ft 2s 7 9 mph 1026.5mb 47f 42f
12:00 0.7ft 2s 7 9 mph 1026.4mb 47f 42f
Do 12/25 11:00 1ft 3s 9 11 mph 1026mb 47f 42f
10:00 0.7ft 2s 9 11 mph 1025.4mb 47f 43f
9:00  -  3s 2 4 mph 1025.4mb 47f 43f
8:00  -  4s 4
mph
1024.8mb 47f 43f
7:00  -  4s  -  2 mph 1024.5mb 46f 43f
6:00  -  5s 4
mph
1023.9mb 47f 43f
5:00  -  5s 2
mph
1023.7mb 46f 44f
4:00  -  3s 4 7 mph 1023.3mb 47f 44f
3:00 0.3ft 5s 4
mph
1023.3mb 47f 44f
2:00  -  6s 4
mph
1022.9mb 47f 43f
1:00 0.3ft 2s 2 4 mph 1022.6mb 47f 44f
12:00 0.3ft 2s 2 4 mph 1022.4mb 47f 44f
11:00 0.3ft 3s 4 7 mph 1022.2mb 47f 43f
10:00 0.3ft 3s 7 9 mph 1022mb 46f 43f
9:00 0.7ft 2s 9 11 mph 1021.1mb 46f 43f
8:00 1ft 2s 7 9 mph 1020.2mb 46f 43f
7:00 1ft 3s 11 13 mph 1019.9mb 46f 44f
6:00 1ft 3s 13 16 mph 1019.5mb 46f 44f
5:00 1ft 3s 11 16 mph 1019.2mb 47f 44f
4:00 1ft 3s 11
mph
1019.1mb 47f 45f
3:00 1ft 3s 11 13 mph 1019.2mb 47f 44f
2:00 1ft 2s 11 13 mph 1018.5mb 47f 45f
1:00 1ft 2s 13 16 mph 1018.2mb 47f 45f
12:00 1ft 3s 13 16 mph 1017.8mb 47f 45f
Mi 12/24 11:00 1ft 3s 13 18 mph 1017.3mb 47f 45f
10:00 1.3ft 3s 13 18 mph 1016.7mb 47f 46f
9:00 1.3ft 2s 13 16 mph 1016.3mb 47f 45f
8:00 1.3ft 3s 16 18 mph 1015.9mb 47f 45f
7:00 1.3ft 2s 16 18 mph 1015.5mb 47f 45f
6:00 1ft 2s 18 20 mph 1014.6mb 47f 45f
5:00 0.7ft 2s 11 13 mph 1014.6mb 47f 44f
4:00 0.7ft 2s 9 11 mph 1014.3mb 47f 44f
3:00 0.3ft 2s 9 13 mph 1013.8mb 47f 44f
2:00 0.3ft 2s 9 11 mph 1013.5mb 47f 43f
1:00 0.3ft 2s 11 13 mph 1013.2mb 47f 42f
12:00 0.3ft 2s 9
mph
1013mb 47f 42f
11:00 0.3ft 2s 9 11 mph 1013.1mb 47f 42f
10:00 0.3ft 2s 9
mph
1013.1mb 47f 42f
9:00 0.3ft 8s 7 9 mph 1012.6mb 47f 42f
8:00 0.3ft 8s 4 7 mph 1012mb 47f 42f
7:00 0.3ft 2s 7 9 mph 1012mb 47f 42f
6:00 0.3ft 2s 7 9 mph 1012.1mb 47f 43f
5:00 0.7ft 2s 7
mph
1012.5mb 47f 44f
4:00 0.3ft 3s 7 9 mph 1012.9mb 47f 44f
3:00 0.3ft 3s 7 9 mph 1013.5mb 47f 44f
2:00 0.7ft 3s 2 4 mph 1013.7mb 47f 44f
1:00 0.7ft 3s 9 11 mph 1014.7mb 47f 45f
12:00 1ft 3s 2 4 mph 1014.7mb 47f 46f
Di 12/23 11:00 1ft 4s 7 9 mph 1015.1mb 47f 45f
10:00 1.6ft 4s 7 9 mph 1015.2mb 47f 45f
9:00 2ft 4s 4 7 mph 1015.2mb 48f 46f
8:00 1.6ft 4s 7 9 mph 1015.7mb 47f 46f
7:00 1.6ft 4s 7 9 mph 1016.1mb 47f 46f
6:00 2ft 4s  -  2 mph 1016.6mb 47f 46f
5:00 2.5ft 5s 13 18 mph 1016.7mb 48f 47f
4:00 2.5ft 5s 16 18 mph 1016.9mb 48f 47f
3:00 3ft 5s 16 18 mph 1017.5mb 48f 46f
2:00 4.5ft 6s 13 16 mph 1017.7mb 48f 46f
1:00 4.5ft 5s 13 18 mph 1018.3mb 48f 46f
12:00 4.5ft 6s 18 27 mph 1018.4mb 48f 46f
11:00 4.5ft 5s 20 25 mph 1018.8mb 48f 46f
10:00 4.5ft 6s 16 20 mph 1019.6mb 47f 46f
9:00 4.5ft 6s 20 22 mph 1019.6mb 47f 46f
8:00 4.5ft 5s 16 20 mph 1018.7mb 47f 46f
7:00 4.5ft 5s 20 25 mph 1018.6mb 48f 45f
6:00 4ft 5s 22 27 mph 1018.9mb 48f 45f